Lid_Strength_Index
0 -0 -0 -0 -0 -0 -0 0 0 0 0 0 0 0 0 1 2 6 8 5 3 0 2 6 8 8 9 10 10 12 16 17 17 16 15 12 13 12 11 13 10 8 8 6 4
-0 -0 -0 -0 -0 -0 -0 -0 0 0 0 0 0 0 1 1 5 9 4 1 1 0 7 8 9 9 11 11 11 13 17 16 14 15 15 12 13 13 13 13 12 9 7 5 6
-0 -0 -0 -0 -1 -0 -0 0 0 0 0 0 1 1 1 3 7 9 2 1 1 2 6 7 8 10 12 12 12 14 16 14 13 12 11 13 13 12 13 13 12 9 7 6 6
-1 -1 -1 -0 -0 -0 -0 0 1 0 0 1 1 2 1 5 14 8 2 2 2 4 7 8 10 13 14 14 12 15 13 13 12 11 12 13 12 13 13 12 11 10 6 7 6
-0 -0 -0 0 0 0 0 1 1 1 1 2 2 2 5 10 11 6 3 4 6 6 8 9 11 12 15 14 13 14 13 11 11 11 12 11 12 13 13 11 11 9 7 7 7
-0 0 0 1 1 1 1 1 2 1 2 3 2 3 9 12 6 6 7 7 7 7 8 9 10 10 13 13 14 13 12 12 12 12 12 12 13 13 13 12 11 9 8 8 7
0 1 1 1 1 1 1 2 2 1 2 3 3 5 10 11 6 6 7 8 8 8 9 8 9 11 12 14 12 12 15 14 14 12 13 13 14 14 12 12 12 10 9 8 8
1 1 1 1 2 2 2 2 2 2 3 3 3 8 12 6 7 8 7 9 8 8 8 8 9 10 12 12 13 15 16 18 15 13 13 14 16 14 13 13 13 10 9 9 8
0 1 2 2 2 2 3 3 2 3 3 3 8 10 13 6 9 8 8 9 9 9 8 7 9 12 12 15 17 16 19 18 16 13 13 15 16 14 14 13 13 12 10 9 9
-0 1 2 2 3 3 3 4 4 5 6 7 7 10 10 11 9 9 8 8 10 10 10 11 13 15 15 16 20 19 18 17 18 15 14 15 15 13 13 14 14 14 13 11 10
0 1 2 3 3 3 6 8 9 9 9 11 11 12 11 9 9 10 8 9 10 12 15 13 15 17 17 16 16 16 18 18 17 15 17 17 16 14 13 14 14 14 15 13 10
1 2 2 2 3 4 8 11 11 10 12 9 10 11 10 10 12 11 9 12 13 15 14 15 17 15 14 15 16 17 19 19 17 15 16 16 16 13 13 14 13 13 14 14 12
2 2 2 3 3 7 9 10 7 9 13 11 11 12 11 10 13 12 10 12 14 16 16 17 15 13 14 15 16 17 18 18 18 15 16 17 18 17 14 14 13 13 13 13 11
2 2 2 4 5 7 9 7 7 8 16 14 12 11 10 10 12 9 9 13 14 15 15 16 14 14 16 16 16 18 15 15 15 18 21 17 23 17 15 15 14 13 14 14 11
2 2 2 4 6 8 8 7 8 10 20 13 13 9 10 12 12 11 9 11 14 15 15 15 16 16 16 15 15 16 14 15 16 19 20 19 22 18 17 16 14 13 13 13 12
2 2 3 5 7 7 7 8 9 15 20 15 12 13 13 12 12 11 11 11 12 14 15 15 14 14 15 13 14 13 16 17 18 19 24 20 20 19 18 16 14 13 12 12 12
2 2 3 5 6 7 8 9 15 19 12 14 14 13 14 13 13 13 13 15 15 17 18 15 15 14 13 16 14 15 19 23 23 25 21 18 20 17 15 14 14 13 12 11 12
2 2 4 6 5 7 7 11 18 15 14 12 13 13 14 13 13 14 15 16 15 15 18 20 20 15 14 15 16 16 17 20 25 24 21 18 20 16 14 12 13 11 11 10 10
4 6 6 6 6 6 8 15 14 14 11 12 13 15 15 13 14 16 16 15 14 13 16 18 18 14 14 13 13 16 17 15 17 20 22 20 18 15 13 13 12 11 10 10 10
6 7 7 6 6 7 10 13 12 10 11 12 14 13 15 14 15 15 15 14 14 13 14 16 19 16 14 13 13 14 13 18 18 24 24 21 20 18 16 14 13 12 11 10 9
6 9 8 6 6 10 14 12 10 9 10 11 13 12 12 13 13 13 13 14 14 14 15 16 17 18 15 15 15 15 16 16 16 18 23 24 20 16 14 13 13 12 11 10 9
7 11 8 6 12 11 14 12 10 10 9 10 12 12 12 12 13 13 13 12 13 13 15 14 17 20 17 14 13 14 15 15 17 19 20 20 20 14 12 12 12 11 10 10 8
9 10 7 8 14 13 13 12 12 12 11 11 12 11 10 11 14 12 12 11 12 13 14 14 16 20 18 16 15 15 15 14 15 16 19 20 18 13 13 12 12 11 10 9 8
11 15 11 10 11 13 13 13 13 11 11 10 11 11 12 12 11 13 12 11 12 12 9 10 14 17 18 16 15 17 15 13 13 17 17 17 15 14 13 13 12 11 10 10 8
10 14 13 16 14 13 13 14 14 14 12 12 13 12 12 14 13 13 12 11 10 10 10 10 15 16 15 14 14 14 14 13 14 14 17 15 15 13 12 12 11 10 9 10 9
11 13 13 16 15 14 13 15 14 13 13 14 14 12 13 13 12 14 12 12 13 12 11 10 16 16 17 13 13 14 13 13 14 14 13 13 14 9 10 10 11 10 9 9 9
8 9 11 13 15 15 15 14 14 12 12 11 12 13 13 12 10 10 9 10 11 11 12 12 13 14 17 15 15 17 15 14 14 13 13 15 12 12 12 11 11 11 10 10 10